Wind_Speed
29 28 29 28 26 25 24 23 22 22 22 22 22 22 22 21 20 18 14 14 14 14 14 14 14 13 13 13 12 12 12 12 12 12 11 11 12 12 12 12 12 13 14 15
32 31 31 32 30 29 26 23 22 22 22 22 23 24 23 22 22 21 19 17 16 16 15 15 15 14 14 14 14 13 13 13 13 13 13 13 13 13 12 12 13 14 15 16
35 33 33 34 32 31 29 27 25 24 22 22 23 24 24 24 24 23 20 19 17 17 17 16 16 15 15 15 15 14 14 14 15 14 14 14 13 14 14 13 13 13 14 15
38 35 37 33 32 33 32 31 29 27 25 24 25 26 26 26 25 24 23 20 18 18 19 18 17 16 16 16 16 15 15 15 15 15 14 14 14 14 15 15 16 16 16 17
40 39 37 34 33 34 34 34 33 31 30 28 27 27 27 27 26 26 24 22 20 18 18 18 18 18 18 18 17 17 17 16 16 16 16 16 16 16 17 17 17 17 17 18
43 41 38 33 33 36 37 37 35 34 32 31 30 29 27 27 26 26 24 22 22 20 20 20 20 19 19 19 19 19 18 18 17 17 17 18 18 18 18 18 18 18 18 19
45 43 39 35 34 36 38 37 35 33 33 32 32 30 28 27 26 25 23 23 22 22 21 21 21 21 21 20 20 20 20 19 19 19 19 19 19 19 20 19 19 19 19 19
47 46 42 35 34 36 36 35 35 34 33 33 33 32 31 29 27 25 23 22 23 23 23 23 23 23 23 23 22 22 22 21 21 20 20 21 21 20 20 20 21 21 21 20
48 46 41 37 36 36 37 37 36 34 34 34 33 33 31 29 28 25 23 24 24 25 25 25 24 24 24 24 24 24 24 23 22 22 21 21 21 21 21 21 22 22 21 21
47 46 43 40 38 38 38 38 37 36 35 34 33 32 31 29 27 27 27 27 28 27 27 26 26 26 26 25 25 25 25 24 24 23 23 23 23 22 22 22 22 22 22 22
46 45 43 41 39 38 37 37 37 36 36 35 34 35 34 32 31 30 29 29 29 28 27 27 27 27 26 26 25 25 25 25 25 24 24 24 23 23 22 22 22 22 22 22
44 43 42 40 38 37 36 36 36 36 35 35 34 33 32 31 30 30 29 29 29 28 28 28 28 28 27 26 26 25 25 24 24 24 24 23 23 22 22 23 23 23 23 22
42 40 39 38 38 37 37 37 37 35 35 34 34 34 32 31 30 30 29 30 30 29 29 28 28 27 27 26 25 25 25 24 23 24 24 23 23 23 23 23 23 23 23 22
40 39 37 37 36 36 36 37 36 35 34 32 33 33 32 31 31 30 30 30 30 30 29 28 28 27 27 26 25 25 24 23 23 23 23 23 22 23 23 23 23 22 21 21
42 40 39 38 36 35 34 35 35 34 34 34 33 33 32 31 30 31 31 31 30 30 29 29 28 28 27 26 25 25 24 23 23 22 22 22 22 22 22 21 21 21 21 21
38 38 37 35 35 34 34 32 31 32 31 31 30 30 29 29 29 30 30 30 30 29 28 27 27 26 25 25 23 22 22 22 22 22 21 21 21 21 21 21 21 21 21 21
36 35 34 34 33 32 32 31 31 30 30 29 28 28 28 29 29 29 29 28 28 27 27 26 25 24 23 22 21 20 20 19 19 19 19 20 19 19 20 20 20 21 22 22
34 32 31 31 30 30 30 28 28 28 28 28 27 27 27 27 27 27 27 26 25 25 24 24 23 22 21 20 20 19 19 19 19 19 19 19 19 19 19 19 20 20 20 21
30 30 30 30 29 28 28 28 27 27 26 26 25 25 24 24 24 24 24 23 23 22 22 21 20 20 19 19 19 18 18 18 17 17 17 17 17 18 19 19 20 20 21 21
27 27 27 27 27 27 26 26 25 25 24 24 23 23 22 22 22 22 21 21 20 20 19 19 19 19 18 18 18 17 16 16 16 17 17 17 18 18 19 20 20 21 21 22
25 25 25 25 25 25 24 24 22 22 22 22 23 23 22 21 20 20 20 20 19 18 18 18 17 17 17 17 16 16 16 16 17 17 18 19 19 19 20 21 22 22 23 23
23 23 23 23 22 22 21 21 20 20 20 20 21 21 21 21 19 19 18 18 17 17 17 17 16 16 16 16 16 16 16 17 17 18 19 19 19 20 20 21 22 22 23 25
22 21 21 21 20 21 21 20 20 19 19 19 19 19 19 18 18 18 17 17 17 17 17 16 16 15 15 16 16 16 17 18 19 19 20 20 20 21 21 22 23 24 25 26
18 18 19 20 20 19 20 19 18 18 18 17 17 17 17 17 17 17 16 16 16 16 16 16 16 16 16 17 17 18 18 19 19 20 20 21 21 22 23 23 25 25 26 26
15 15 16 17 18 18 17 17 16 16 16 15 15 16 16 16 16 15 15 15 15 16 16 16 16 16 17 17 18 18 19 19 20 20 21 22 23 24 25 25 26 26 26 26
12 13 14 14 15 15 15 14 14 14 14 14 14 14 14 14 14 15 15 15 15 16 16 16 16 16 17 18 18 19 20 20 21 22 23 24 25 25 25 26 26 27 27 27
12 12 12 12 12 13 12 12 12 13 13 14 14 15 15 15 15 15 16 16 16 15 16 16 17 18 19 19 20 21 21 22 23 24 24 25 25 25 26 26 27 28 28 29
Wind_Direction
228 225 227 232 234 238 244 251 257 260 258 260 267 276 285 292 296 297 300 309 308 309 311 312 313 314 313 312 311 307 303 301 300 297 294 292 285 279 277 277 277 273 273 272
232 226 227 231 234 238 242 245 253 257 258 259 264 274 283 292 298 299 301 302 300 301 306 308 309 309 308 309 307 304 301 299 298 295 290 291 289 285 282 281 281 279 276 276
234 233 231 231 232 236 241 244 251 256 259 261 264 272 280 287 293 296 298 298 296 298 303 304 303 303 305 305 303 301 297 295 295 292 287 285 285 283 282 281 283 283 280 280
236 236 235 232 232 236 240 242 247 252 256 262 268 274 280 285 289 292 298 293 294 296 298 297 298 299 301 300 300 298 296 292 292 289 287 284 284 284 284 283 283 282 280 280
236 238 239 234 232 235 239 241 245 249 254 260 267 271 276 281 284 289 291 292 292 293 295 296 296 297 297 297 297 296 295 293 292 290 288 287 287 286 285 285 285 284 282 282
237 239 240 237 233 234 239 242 247 250 254 259 264 268 274 277 280 284 286 287 289 290 291 293 293 292 293 293 293 293 292 290 289 288 288 287 286 285 284 284 284 283 283 282
238 240 242 238 235 236 239 245 248 251 255 259 262 268 274 275 277 280 283 284 285 287 288 290 291 290 290 290 291 290 290 289 288 286 285 284 284 284 283 282 282 281 282 282
237 240 241 239 237 237 240 245 248 251 255 258 263 266 270 272 277 278 280 284 287 287 289 290 290 289 288 288 289 288 288 286 286 284 283 282 282 283 283 282 281 281 282 283
235 239 241 240 238 239 241 243 247 251 255 258 262 267 268 270 276 278 280 284 286 287 288 288 289 289 289 287 286 286 286 285 285 284 283 282 281 281 282 283 282 281 282 283
234 238 239 239 239 240 241 243 246 250 254 259 261 265 266 270 275 278 281 283 285 287 288 288 288 288 288 287 285 284 284 282 282 281 281 281 281 280 280 282 282 282 284 284
234 237 238 239 239 240 241 244 246 250 253 256 259 262 265 268 273 276 278 280 282 284 286 286 287 288 287 285 283 283 283 283 281 279 279 279 279 279 280 280 281 282 283 284
234 237 239 239 240 240 243 245 247 251 254 256 257 260 264 267 270 272 275 278 280 282 284 285 285 285 283 283 282 282 282 282 281 281 279 278 278 278 280 280 281 281 281 282
233 236 238 238 239 241 244 244 247 251 254 254 256 260 262 266 270 272 274 276 278 279 281 282 283 282 281 281 280 280 281 281 281 279 278 278 277 276 278 279 280 279 279 280
230 233 235 237 238 242 243 245 247 250 252 254 258 261 264 266 269 272 273 275 276 277 277 278 280 280 280 280 279 279 279 278 277 277 277 277 276 277 277 277 277 278 279 278
229 233 236 238 240 242 245 246 247 252 254 256 260 264 265 266 269 271 273 274 275 275 275 276 278 278 278 277 277 277 277 275 274 275 276 276 276 275 274 274 274 276 277 277
230 232 235 238 239 240 245 245 247 251 254 256 259 262 264 266 269 270 270 271 272 274 275 276 277 276 276 275 274 273 273 272 272 273 274 273 272 273 273 274 275 275 277 279
231 234 236 240 241 240 243 248 249 251 254 254 259 261 263 265 267 268 269 270 272 273 274 276 276 275 275 272 271 271 271 271 273 273 273 273 273 271 273 274 275 277 279 281
233 236 237 239 242 243 243 248 250 253 255 256 258 260 263 264 265 267 269 271 271 272 271 271 272 272 271 269 269 269 271 271 272 272 272 271 271 272 274 275 277 280 283 285
235 235 238 242 244 245 248 250 251 254 254 255 257 261 263 263 264 267 268 269 268 269 269 268 268 267 267 268 267 268 269 270 271 272 274 273 273 275 277 279 282 284 285 286
233 235 239 243 245 246 247 247 250 252 253 254 256 260 262 261 261 263 265 266 267 267 266 266 266 265 265 265 264 265 266 268 271 273 275 275 277 278 280 282 283 284 285 286
234 236 239 242 243 244 245 245 248 251 253 253 255 257 257 258 260 261 262 263 264 264 264 264 264 264 262 260 261 263 266 270 272 273 275 276 278 280 281 283 284 285 286 287
233 236 237 237 238 239 241 243 246 248 251 253 253 253 254 255 256 257 258 258 259 259 259 261 262 261 260 260 263 266 270 272 274 276 277 278 279 280 281 282 283 284 286 289
230 231 231 233 234 234 236 239 243 246 247 248 249 250 251 251 252 253 255 256 256 256 256 257 259 261 263 264 265 268 271 273 275 276 277 278 279 281 282 283 284 286 288 289
222 226 229 232 234 234 236 238 240 243 243 243 244 245 247 248 251 253 253 252 251 251 252 255 260 263 265 266 267 270 274 275 277 278 279 281 283 284 285 286 287 289 289 290
216 219 223 226 228 230 232 234 235 235 235 237 240 243 245 246 248 249 249 249 249 251 254 258 261 263 265 268 271 275 277 277 279 281 282 283 285 287 287 288 289 290 290 291
207 209 211 216 219 221 221 222 223 226 231 233 234 236 240 245 248 248 249 251 252 253 257 260 262 265 268 272 275 277 279 280 281 282 283 285 286 287 289 289 290 290 291 292
196 197 202 205 207 210 212 216 222 227 231 234 237 240 244 248 248 248 251 253 253 255 258 263 268 272 273 275 277 279 281 282 283 284 286 287 288 289 290 291 290 291 291 292
Height
5845 5849 5851 5853 5855 5857 5858 5859 5860 5861 5862 5863 5863 5864 5864 5864 5864 5863 5862 5862 5863 5862 5861 5860 5858 5858 5857 5856 5854 5853 5852 5851 5850 5849 5848 5847 5846 5846 5845 5845 5844 5844 5844 5843
5838 5842 5845 5847 5850 5852 5853 5854 5854 5855 5857 5859 5859 5859 5860 5860 5860 5859 5858 5859 5858 5858 5857 5856 5855 5854 5853 5852 5851 5850 5849 5848 5847 5846 5844 5844 5843 5842 5841 5841 5840 5840 5840 5839
5831 5835 5838 5841 5845 5846 5847 5848 5849 5850 5853 5854 5855 5855 5856 5857 5857 5856 5855 5855 5855 5854 5853 5852 5852 5851 5850 5848 5847 5846 5845 5844 5843 5842 5841 5840 5839 5839 5838 5837 5837 5836 5836 5835
5824 5829 5830 5837 5840 5840 5842 5843 5844 5846 5848 5850 5851 5851 5851 5852 5852 5852 5852 5851 5850 5849 5849 5848 5847 5846 5845 5844 5843 5842 5841 5840 5839 5838 5837 5836 5835 5835 5834 5833 5832 5832 5831 5831
5817 5820 5823 5829 5833 5834 5835 5837 5838 5841 5843 5845 5846 5847 5847 5848 5848 5848 5848 5847 5846 5845 5844 5843 5843 5842 5841 5840 5838 5838 5837 5836 5835 5834 5833 5832 5831 5830 5829 5829 5828 5827 5826 5826
5808 5812 5815 5823 5826 5827 5829 5829 5833 5835 5837 5839 5841 5842 5843 5843 5843 5843 5843 5842 5841 5840 5839 5838 5838 5837 5836 5835 5834 5833 5832 5831 5830 5829 5828 5827 5826 5825 5824 5824 5823 5822 5821 5820
5799 5803 5807 5815 5818 5820 5823 5825 5828 5829 5831 5833 5834 5836 5837 5836 5836 5836 5836 5836 5835 5834 5833 5833 5832 5832 5831 5829 5828 5827 5827 5826 5825 5824 5823 5822 5821 5820 5819 5818 5817 5816 5815 5815
5791 5794 5801 5807 5810 5813 5815 5818 5820 5822 5824 5825 5827 5828 5829 5829 5829 5828 5829 5829 5829 5827 5827 5827 5826 5825 5824 5823 5823 5821 5821 5820 5819 5819 5818 5816 5815 5814 5813 5812 5811 5810 5809 5808
5783 5788 5794 5798 5802 5805 5807 5810 5813 5815 5817 5818 5820 5821 5821 5822 5822 5822 5823 5823 5822 5821 5821 5820 5820 5819 5818 5817 5816 5815 5814 5813 5812 5812 5811 5810 5809 5808 5807 5806 5805 5804 5803 5802
5774 5778 5783 5789 5793 5797 5800 5803 5806 5808 5810 5812 5812 5813 5813 5815 5815 5816 5816 5816 5816 5816 5815 5813 5813 5812 5811 5810 5809 5809 5808 5807 5806 5805 5804 5803 5802 5801 5800 5799 5798 5797 5796 5795
5765 5770 5775 5780 5784 5788 5792 5795 5798 5800 5802 5804 5805 5806 5807 5807 5808 5808 5809 5809 5809 5808 5808 5807 5806 5805 5804 5803 5802 5801 5800 5799 5798 5797 5797 5796 5795 5795 5794 5793 5792 5791 5790 5788
5757 5762 5767 5772 5776 5780 5783 5786 5789 5791 5793 5795 5796 5798 5799 5799 5800 5800 5801 5801 5801 5801 5800 5799 5798 5797 5797 5796 5795 5794 5793 5792 5791 5790 5790 5789 5788 5788 5787 5786 5785 5784 5783 5782
5749 5753 5758 5763 5767 5771 5774 5777 5780 5782 5784 5786 5788 5789 5790 5791 5792 5792 5793 5793 5793 5793 5792 5792 5791 5790 5789 5788 5788 5787 5786 5785 5784 5783 5783 5782 5781 5781 5780 5779 5778 5777 5776 5775
5741 5745 5749 5753 5757 5761 5764 5767 5771 5773 5775 5777 5779 5781 5782 5782 5783 5784 5784 5785 5785 5785 5784 5784 5783 5782 5782 5781 5780 5779 5779 5778 5777 5777 5776 5775 5775 5774 5773 5772 5771 5770 5769 5768
5733 5737 5741 5745 5749 5752 5755 5758 5761 5764 5767 5769 5770 5772 5773 5774 5775 5775 5776 5776 5776 5776 5776 5775 5775 5774 5774 5773 5773 5772 5771 5771 5770 5770 5769 5768 5767 5767 5766 5765 5764 5763 5762 5761
5725 5729 5733 5738 5741 5745 5748 5750 5753 5756 5758 5760 5762 5763 5765 5766 5766 5767 5767 5767 5767 5767 5767 5767 5766 5766 5766 5765 5765 5765 5764 5764 5763 5763 5762 5761 5761 5760 5759 5759 5758 5757 5756 5755
5717 5721 5725 5730 5733 5737 5740 5743 5746 5748 5750 5752 5753 5755 5756 5757 5758 5759 5759 5759 5759 5759 5759 5759 5758 5758 5758 5758 5758 5758 5757 5757 5756 5756 5755 5754 5754 5753 5753 5752 5751 5750 5749 5748
5710 5714 5718 5722 5725 5729 5733 5736 5739 5741 5742 5743 5745 5747 5748 5748 5749 5750 5751 5751 5751 5751 5751 5751 5751 5751 5751 5751 5751 5751 5751 5750 5750 5749 5749 5748 5747 5747 5746 5745 5744 5743 5742 5741
5705 5708 5712 5716 5719 5723 5726 5729 5731 5733 5734 5736 5738 5739 5740 5741 5741 5742 5743 5743 5744 5744 5744 5744 5744 5744 5745 5745 5745 5745 5744 5744 5744 5743 5743 5742 5741 5741 5740 5739 5738 5737 5735 5734
5699 5702 5706 5709 5713 5716 5719 5722 5724 5726 5727 5729 5731 5732 5733 5734 5735 5736 5736 5737 5737 5737 5738 5738 5738 5738 5739 5739 5739 5739 5739 5738 5738 5738 5737 5736 5735 5735 5734 5733 5731 5730 5729 5727
5693 5697 5700 5703 5706 5710 5712 5714 5717 5719 5721 5722 5724 5725 5727 5728 5729 5729 5730 5731 5731 5731 5732 5732 5733 5733 5733 5733 5733 5733 5733 5733 5732 5732 5731 5730 5729 5728 5727 5726 5725 5723 5722 5720
5688 5691 5694 5697 5701 5703 5706 5708 5711 5713 5715 5716 5718 5719 5720 5721 5722 5723 5724 5725 5725 5726 5726 5727 5727 5727 5727 5727 5727 5727 5727 5727 5726 5726 5725 5724 5723 5722 5721 5720 5718 5717 5715 5713
5683 5686 5689 5692 5695 5698 5701 5703 5705 5708 5709 5711 5712 5713 5714 5715 5716 5717 5718 5719 5719 5720 5721 5721 5722 5722 5722 5722 5722 5722 5721 5721 5720 5720 5719 5718 5717 5715 5714 5712 5711 5709 5707 5705
5678 5681 5684 5688 5691 5693 5696 5698 5700 5702 5704 5706 5707 5708 5709 5710 5711 5712 5713 5713 5714 5715 5715 5716 5716 5716 5717 5717 5716 5716 5716 5715 5714 5713 5712 5711 5709 5708 5706 5705 5703 5701 5699 5697
5675 5678 5681 5684 5687 5689 5692 5694 5696 5698 5699 5701 5702 5703 5704 5705 5706 5707 5708 5708 5709 5710 5710 5711 5711 5711 5711 5711 5710 5710 5709 5708 5707 5706 5705 5703 5702 5700 5698 5697 5695 5693 5691 5688
5673 5676 5678 5681 5683 5686 5688 5690 5692 5694 5695 5697 5698 5699 5700 5701 5702 5702 5703 5704 5704 5705 5705 5706 5706 5706 5705 5705 5704 5703 5702 5701 5700 5699 5697 5696 5694 5692 5690 5688 5686 5684 5682 5680
5671 5674 5676 5678 5681 5683 5685 5687 5689 5691 5692 5693 5695 5696 5697 5697 5698 5698 5699 5699 5700 5700 5700 5700 5700 5700 5699 5698 5698 5697 5695 5694 5693 5691 5690 5688 5686 5684 5682 5680 5678 5676 5673 5671